Date String (YYYY-MM-DD hh:mm:ss) UTC,Instrument flags,Ambient pressure (hPa),Sample flow (lpm),Bypass flow (lpm),Sample temperature (°C),Ambient temperature (°C),ASC tube jacket temperature (°C),LED temperature (°C),Box temperature (°C),Sample RH (%),Span deviation,Mass concentration (μg/m³),Mass concentration (μg/m³),Mass concentration (μg/m³)
DateTimeUTC,F1_M11,P_M11,Q1_M11,Q2_M11,T1_M11,T2_M11,T3_M11,T4_M11,T5_M11,U1_M11,ZSPAN_M11,X2_M11,X0_M11,X1_M11
2021-12-09 09:00:00,,0814.1,4.99,0.00,22.6,21.8,00.0,31.6,24.3,15.4,0000.0,0000.56,0001.51,0000.28
2021-12-09 09:01:00,,0814.0,5.01,0.00,22.6,21.8,00.0,31.6,24.3,15.5,0000.0,0000.55,0001.49,0000.28
2021-12-09 09:02:00,,0814.0,5.01,0.00,22.6,21.8,00.0,31.6,24.2,15.6,0000.0,0000.55,0001.48,0000.28
2021-12-09 09:03:00,,0814.0,5.00,0.00,22.6,21.7,00.0,31.6,24.2,15.3,0000.0,0000.59,0001.65,0000.30
2021-12-09 09:04:00,,0814.1,4.99,0.00,22.6,21.7,00.0,31.6,24.2,15.3,0000.0,0000.58,0001.49,0000.30
2021-12-09 09:05:00,,0814.0,5.00,0.00,22.6,21.7,00.0,31.6,24.2,15.4,0000.0,0000.58,0001.80,0000.30
2021-12-09 09:06:00,,0814.0,5.01,0.00,22.6,21.7,00.0,31.6,24.2,15.4,0000.0,0000.59,0003.21,0000.31
2021-12-09 09:07:00,,0814.0,4.99,0.00,22.6,21.7,00.0,31.6,24.2,15.5,0000.0,0000.56,0003.15,0000.31
2021-12-09 09:08:00,,0814.0,5.01,0.00,22.6,21.6,00.0,31.6,24.2,15.4,0000.0,0000.53,0003.07,0000.31
2021-12-09 09:09:00,,0814.0,5.00,0.00,22.6,21.6,00.0,31.6,24.2,15.4,0000.0,0000.53,0002.99,0000.30
2021-12-09 09:10:00,,0814.0,5.01,0.00,22.6,21.6,00.0,31.6,24.2,15.4,0000.0,0000.52,0002.95,0000.30
2021-12-09 09:11:00,,0814.0,4.98,0.00,22.6,21.6,00.0,31.6,24.2,15.5,0000.0,0000.51,0004.21,0000.31
2021-12-09 09:12:00,,0814.2,5.00,0.00,22.6,21.6,00.0,31.6,24.2,15.5,0000.0,0000.53,0004.35,0000.31
2021-12-09 09:13:00,,0814.0,5.00,0.00,22.6,21.6,00.0,31.6,24.1,15.5,0000.0,0000.54,0004.40,0000.31
2021-12-09 09:14:00,,0814.0,5.00,0.00,22.5,21.6,00.0,31.6,24.1,15.4,0000.0,0000.51,0004.25,0000.31
2021-12-09 09:15:00,,0814.0,5.00,0.00,22.5,21.6,00.0,31.6,24.2,15.4,0000.0,0000.51,0004.32,0000.31
2021-12-09 09:16:00,,0814.1,5.00,0.00,22.5,21.6,00.0,31.6,24.1,15.5,0000.0,0000.50,0004.25,0000.31
2021-12-09 09:17:00,,0814.1,4.99,0.00,22.5,21.6,00.0,31.6,24.1,15.5,0000.0,0000.48,0002.55,0000.30
2021-12-09 09:18:00,,0813.9,5.01,0.00,22.5,21.6,00.0,31.6,24.2,15.6,0000.0,0000.54,0002.66,0000.32
2021-12-09 09:19:00,,0813.9,4.99,0.00,22.5,21.6,00.0,31.6,24.2,15.6,0000.0,0000.57,0003.01,0000.34
2021-12-09 09:20:00,,0813.9,5.00,0.00,22.5,21.5,00.0,31.6,24.2,15.4,0000.0,0000.59,0003.64,0000.35
2021-12-09 09:21:00,,0814.1,4.98,0.00,22.5,21.5,00.0,31.6,24.2,15.5,0000.0,0000.60,0004.54,0000.37
2021-12-09 09:22:00,,0814.0,5.00,0.00,22.5,21.5,00.0,31.6,24.2,15.4,0000.0,0000.61,0003.61,0000.37
2021-12-09 09:23:00,,0814.2,5.00,0.00,22.4,21.4,00.0,31.5,24.2,15.3,0000.0,0000.60,0003.38,0000.39
2021-12-09 09:24:00,,0814.0,5.01,0.00,22.4,21.4,00.0,31.5,24.1,15.4,0000.0,0000.63,0003.39,0000.40
2021-12-09 09:25:00,,0814.3,5.00,0.00,22.4,21.4,00.0,31.5,24.1,15.4,0000.0,0000.69,0004.33,0000.41
2021-12-09 09:26:00,,0814.3,4.98,0.00,22.4,21.4,00.0,31.5,24.0,15.4,0000.0,0000.72,0004.50,0000.42
2021-12-09 09:27:00,,0814.1,4.99,0.00,22.3,21.4,00.0,31.5,23.9,15.1,0000.0,0000.75,0004.43,0000.43
2021-12-09 09:28:00,,0814.1,5.00,0.00,22.3,21.4,00.0,31.5,23.9,15.1,0000.0,0000.81,0004.60,0000.45
2021-12-09 09:29:00,,0814.2,5.02,0.00,22.3,21.4,00.0,31.4,23.8,15.1,0000.0,0000.79,0004.63,0000.45
2021-12-09 09:30:00,,0813.9,4.99,0.00,22.3,21.3,00.0,31.4,23.8,15.1,0000.0,0000.78,0004.78,0000.44
2021-12-09 09:31:00,,0813.9,5.00,0.00,22.3,21.3,00.0,31.4,23.9,15.3,0000.0,0000.77,0004.16,0000.44
2021-12-09 09:32:00,,0813.9,5.00,0.00,22.3,21.3,00.0,31.4,24.0,15.1,0000.0,0000.75,0003.76,0000.42
2021-12-09 09:33:00,,0813.8,5.00,0.00,22.3,21.3,00.0,31.4,24.0,14.9,0000.0,0000.76,0003.08,0000.43
2021-12-09 09:34:00,,0813.9,5.01,0.00,22.2,21.3,00.0,31.4,24.0,14.5,0000.0,0000.79,0003.22,0000.43
2021-12-09 09:35:00,,0813.9,5.00,0.00,22.2,21.3,00.0,31.4,24.0,14.6,0000.0,0000.81,0003.58,0000.43
2021-12-09 09:36:00,,0814.1,5.00,0.00,22.2,21.2,00.0,31.4,24.0,14.7,0000.0,0000.81,0003.13,0000.43
2021-12-09 09:37:00,,0814.0,5.01,0.00,22.2,21.2,00.0,31.3,23.9,14.7,0000.0,0000.80,0002.62,0000.44
2021-12-09 09:38:00,,0814.0,4.99,0.00,22.2,21.2,00.0,31.3,23.9,14.8,0000.0,0000.77,0002.64,0000.44
2021-12-09 09:39:00,,0813.8,5.00,0.00,22.2,21.2,00.0,31.3,23.9,14.8,0000.0,0000.73,0002.52,0000.43
2021-12-09 09:40:00,,0814.0,5.00,0.00,22.1,21.2,00.0,31.3,23.9,14.7,0000.0,0000.72,0002.42,0000.43
2021-12-09 09:41:00,,0813.8,5.00,0.00,22.1,21.2,00.0,31.3,23.8,14.5,0000.0,0000.75,0002.34,0000.43
2021-12-09 09:42:00,,0813.9,4.98,0.00,22.1,21.2,00.0,31.3,23.7,14.7,0000.0,0000.74,0002.03,0000.43
2021-12-09 09:43:00,,0813.9,5.01,0.00,22.1,21.2,00.0,31.2,23.7,14.7,0000.0,0000.77,0001.96,0000.45
2021-12-09 09:44:00,,0813.9,5.00,0.00,22.1,21.2,00.0,31.2,23.7,14.8,0000.0,0000.79,0002.10,0000.45
2021-12-09 09:45:00,,0813.9,4.99,0.00,22.1,21.6,00.0,31.2,23.9,14.9,0000.0,0000.76,0001.97,0000.44
2021-12-09 09:46:00,,0813.9,4.99,0.00,22.2,22.3,00.0,31.3,24.2,14.8,0000.0,0000.75,0001.67,0000.44
2021-12-09 09:47:00,,0813.9,5.01,0.00,22.4,23.1,00.0,31.3,24.5,14.7,0000.0,0000.72,0001.61,0000.43
2021-12-09 09:48:00,,0813.9,4.99,0.00,22.5,23.2,00.0,31.4,24.6,14.6,0000.0,0000.72,0001.60,0000.43
2021-12-09 09:49:00,,0814.2,5.00,0.00,22.5,23.0,00.0,31.4,24.5,14.6,0000.0,0000.73,0002.66,0000.44
2021-12-09 09:50:00,,0814.1,5.00,0.00,22.5,22.7,00.0,31.4,24.4,14.5,0000.0,0000.76,0003.03,0000.44
2021-12-09 09:51:00,,0814.2,4.99,0.00,22.5,22.5,00.0,31.4,24.3,14.5,0000.0,0000.77,0003.18,0000.44
2021-12-09 09:52:00,,0814.2,5.02,0.00,22.5,22.4,00.0,31.4,24.2,14.6,0000.0,0000.77,0003.30,0000.44
2021-12-09 09:53:00,,0813.9,4.99,0.00,22.5,22.2,00.0,31.4,24.2,14.6,0000.0,0000.79,0003.41,0000.43
2021-12-09 09:54:00,,0814.2,5.01,0.00,22.5,22.1,00.0,31.4,24.2,14.4,0000.0,0000.77,0003.30,0000.43
2021-12-09 09:55:00,,0814.2,4.99,0.00,22.5,22.0,00.0,31.5,24.1,14.4,0000.0,0000.78,0003.39,0000.42
2021-12-09 09:56:00,,0813.7,5.00,0.00,22.5,21.9,00.0,31.5,24.1,14.4,0000.0,0000.79,0003.40,0000.42
2021-12-09 09:57:00,,0813.6,5.00,0.00,22.5,21.8,00.0,31.5,24.2,14.4,0000.0,0000.79,0003.41,0000.42
2021-12-09 09:58:00,,0813.6,5.01,0.00,22.5,21.8,00.0,31.5,24.1,14.4,0000.0,0000.79,0003.43,0000.42
2021-12-09 09:59:00,,0813.5,5.00,0.00,22.5,21.8,00.0,31.5,24.2,14.3,0000.0,0000.79,0003.43,0000.42
